Find Starlink 6321

NORAD ID: 57340 Int'l Des: 2023-099 Owner: SPXS Country: US Constellation: starlink operational
LEOCIRCULAR

Live Position

Loading 3D Globe...

About Starlink 6321

Description loading...

Upcoming Passes

Passes for default location (London). Set your location on the main map for personalized predictions.

Altitude History

Loading altitude history...

Two-Line Element Set

1 57340U 23099N 26124.54253952 .00002951 00000-0 11677-3 0 9994
2 57340 43.0037 297.3768 0001377 252.8578 107.2123 15.27563506154618
Epoch: May 4, 2026 • Age: 9 hours

Current Status

Altitude 494.1 km
Velocity 7.62 km/s
Sub-Earth Point -39.19°S, 39.91°E
Launch Date Jul 16, 2023
Age 2.8 years
Type internet

Technical Details

Classification Payload
Mass 305.00 kg
Dry Mass 290.00 kg
Total Mass 305.00 kg
Length 0.20 m
Diameter 2.80 m
Span 9.00 m
Shape Box + pan
Manufacturer SPXS
Bus Type Starlink
Phase Status In Orbit
Owner/State SPXS/US

Most Searched